Weather History for Canby, MN

Change the Weather History Date:

Monday, November 19, 2012

  Actual Average (KMML) Record (KMML)
Temperature  
Mean Temperature 44 °F -  
Max Temperature 56 °F 36 °F 63 °F (1989)
Min Temperature 32 °F 21 °F -2 °F (1986)
Degree Days  
Heating Degree Days 21    
Moisture  
Dew Point 35 °F    
Average Humidity 71    
Maximum Humidity 94    
Minimum Humidity 52    
Precipitation  
Precipitation 0.00 in - - ()
Sea Level Pressure  
Sea Level Pressure 30.02 in    
Wind  
Wind Speed 10 mph (West)    
Max Wind Speed 21 mph    
Max Gust Speed 32 mph    
Visibility 10 miles    
Events      
Averages and records for this station are not official NWS values.
T = Trace of Precipitation, MM = Missing Value Source: NWS Daily Summary

Daily Weather History Graph

Daily Weather History Graph

Search for Another Location

Airport:

Trip Planner

Search our weather history database for the weather conditions in past years. The results will help you decide how hot, cold, wet, or windy it might be!

Date:

Astronomy

Nov. 19, 2012 Rise Set
Actual Time 7:27 AM CST 4:52 PM CST
Civil Twilight 6:55 AM CST 5:24 PM CST
Nautical Twilight 6:20 AM CST 6:00 PM CST
Astronomical Twilight 5:45 AM CST 6:35 PM CST
Moon 12:25 PM CST (11/19) 11:28 PM CST (11/19)
Length of Visible Light 10h 28m
Length of Day
9h 24m
Waxing Crescent, 41% of the Moon is Illuminated
Nov 19
Waxing Crescent
Nov 20
First Quarter
Nov 28
Full
Dec 6
Last Quarter
Dec 13
New

Hourly Weather History & Observations

Time (CST) Temp. Windchill Dew Point Humidity Pressure Visibility Wind Dir Wind Speed Gust Speed Precip Events Conditions
12:14 AM 51.4 °F - 35.8 °F 55% 29.92 in 10.0 mi SSW 20.7 mph 28.8 mph N/A   Clear
12:35 AM 51.1 °F - 35.8 °F 56% 29.92 in 10.0 mi South 16.1 mph 32.2 mph N/A   Clear
12:55 AM 50.9 °F - 36.0 °F 57% 29.91 in 10.0 mi SSW 18.4 mph 31.1 mph N/A   Clear
1:14 AM 50.4 °F - 36.1 °F 58% 29.91 in 10.0 mi South 13.8 mph 26.5 mph N/A   Clear
1:35 AM 50.0 °F - 36.1 °F 59% 29.93 in 10.0 mi SSE 9.2 mph 17.3 mph N/A   Clear
1:55 AM 49.3 °F - 36.1 °F 61% 29.93 in 10.0 mi SSE 5.8 mph - N/A   Clear
2:15 AM 48.9 °F - 36.1 °F 61% 29.94 in 10.0 mi SSE 9.2 mph - N/A   Clear
2:35 AM 48.6 °F - 36.1 °F 62% 29.94 in 10.0 mi South 9.2 mph - N/A   Clear
2:55 AM 48.2 °F - 36.1 °F 63% 29.94 in 10.0 mi SSE 8.1 mph - N/A   Clear
3:15 AM 48.2 °F - 36.3 °F 63% 29.94 in 10.0 mi SSE 9.2 mph 17.3 mph N/A   Clear
3:35 AM 46.6 °F - 36.1 °F 67% 29.94 in 10.0 mi South 9.2 mph - N/A   Clear
3:55 AM 47.5 °F - 36.5 °F 66% 29.93 in 10.0 mi South 8.1 mph - N/A   Clear
4:15 AM 46.9 °F - 36.5 °F 67% 29.93 in 10.0 mi SSE 8.1 mph - N/A   Clear
4:35 AM 45.7 °F 43.4 °F 36.5 °F 70% 29.94 in 10.0 mi SSE 4.6 mph - N/A   Clear
4:54 AM 43.0 °F 38.2 °F 35.6 °F 75% 29.94 in 10.0 mi SSE 8.1 mph - N/A   Clear
5:15 AM 42.1 °F 38.4 °F 35.6 °F 78% 29.95 in 10.0 mi SSE 5.8 mph - N/A   Clear
5:35 AM 44.4 °F 40.5 °F 36.0 °F 72% 29.95 in 10.0 mi South 6.9 mph - N/A   Clear
5:55 AM 44.8 °F 41.6 °F 36.0 °F 71% 29.95 in 10.0 mi South 5.8 mph - N/A   Clear
6:15 AM 43.7 °F 39.1 °F 35.8 °F 74% 29.95 in 10.0 mi South 8.1 mph - N/A   Clear
6:35 AM 42.8 °F 38.0 °F 35.6 °F 76% 29.95 in 10.0 mi South 8.1 mph - N/A   Clear
6:54 AM 40.5 °F 37.3 °F 35.1 °F 81% 29.95 in 10.0 mi South 4.6 mph - N/A   Clear
7:35 AM 36.7 °F - 33.4 °F 88% 29.97 in 10.0 mi Calm Calm - N/A   Clear
7:54 AM 34.2 °F - 32.0 °F 92% 29.99 in 10.0 mi Calm Calm - N/A   Clear
8:15 AM 36.3 °F - 33.3 °F 89% 29.98 in 10.0 mi Calm Calm - N/A   Clear
8:35 AM 38.1 °F 35.7 °F 34.2 °F 86% 29.99 in 10.0 mi ENE 3.5 mph - N/A   Clear
8:54 AM 41.4 °F - 35.8 °F 81% 29.99 in 10.0 mi Calm Calm - N/A   Clear
9:15 AM 43.7 °F - 36.5 °F 76% 30.00 in 10.0 mi Calm Calm - N/A   Clear
9:35 AM 45.1 °F - 36.7 °F 72% 30.00 in 10.0 mi Calm Calm - N/A   Clear
9:55 AM 47.8 °F - 37.6 °F 68% 30.01 in 10.0 mi West 8.1 mph - N/A   Clear
9:59 AM 48.2 °F - 37.6 °F 67% 30.01 in 10.0 mi West 8.1 mph - N/A   Clear
1:23 PM - - - N/A% 30.00 in - NW 5.8 mph - N/A   Unknown
1:35 PM 55.6 °F - 38.5 °F 53% 30.01 in 10.0 mi North 6.9 mph - N/A   Unknown
1:55 PM 56.1 °F - 38.7 °F 52% 30.02 in 10.0 mi NW 12.7 mph - N/A   Clear
2:15 PM 55.8 °F - 38.7 °F 53% 30.02 in 10.0 mi NW 10.4 mph - N/A   Clear
2:34 PM 55.8 °F - 39.2 °F 54% 30.03 in 10.0 mi NW 9.2 mph - N/A   Clear
2:55 PM 55.2 °F - 38.8 °F 54% 30.03 in 10.0 mi NNW 9.2 mph - N/A   Clear
3:15 PM 54.9 °F - 38.8 °F 55% 30.03 in 10.0 mi NNW 6.9 mph - N/A   Clear
3:35 PM 54.1 °F - 38.5 °F 55% 30.04 in 10.0 mi North 5.8 mph - N/A   Clear
3:54 PM 53.8 °F - 38.3 °F 56% 30.05 in 10.0 mi NNW 10.4 mph - N/A   Clear
4:15 PM 52.9 °F - 37.0 °F 55% 30.05 in 10.0 mi NNW 8.1 mph - N/A   Clear
4:35 PM 51.1 °F - 37.2 °F 59% 30.06 in 10.0 mi NNW 5.8 mph - N/A   Clear
4:55 PM 49.3 °F - 37.4 °F 64% 30.07 in 10.0 mi NNW 6.9 mph - N/A   Clear
5:15 PM 47.8 °F - 36.7 °F 65% 30.08 in 10.0 mi NNW 6.9 mph - N/A   Clear
5:35 PM 46.2 °F 43.3 °F 36.5 °F 69% 30.08 in 10.0 mi NNW 5.8 mph - N/A   Clear
5:55 PM 45.1 °F 41.4 °F 36.1 °F 71% 30.09 in 10.0 mi NNW 6.9 mph - N/A   Clear
6:15 PM 44.8 °F 39.9 °F 36.0 °F 71% 30.11 in 10.0 mi NNW 9.2 mph - N/A   Clear
6:35 PM 45.0 °F 42.6 °F 35.8 °F 70% 30.11 in 10.0 mi NW 4.6 mph - N/A   Clear
6:55 PM 43.0 °F 39.5 °F 34.9 °F 73% 30.11 in 10.0 mi NW 5.8 mph - N/A   Clear
7:15 PM 42.1 °F 37.1 °F 34.2 °F 74% 30.11 in 10.0 mi NW 8.1 mph - N/A   Clear
7:35 PM 41.5 °F 37.1 °F 34.2 °F 75% 30.11 in 10.0 mi WNW 6.9 mph - N/A   Clear
7:55 PM 39.2 °F 34.2 °F 33.1 °F 79% 30.12 in 10.0 mi WNW 6.9 mph - N/A   Clear
8:15 PM 38.1 °F 32.9 °F 32.9 °F 81% 30.13 in 10.0 mi WNW 6.9 mph - N/A   Clear
8:35 PM 37.4 °F 32.8 °F 32.5 °F 83% 30.13 in 10.0 mi WNW 5.8 mph - N/A   Clear
9:15 PM 37.0 °F 31.0 °F 32.2 °F 83% 30.14 in 10.0 mi WNW 8.1 mph - N/A   Clear
9:34 PM 36.3 °F 29.5 °F 32.0 °F 84% 30.14 in 10.0 mi WNW 9.2 mph - N/A   Clear
9:55 PM 36.0 °F 29.6 °F 31.8 °F 85% 30.15 in 10.0 mi WNW 8.1 mph - N/A   Clear
10:15 PM 34.9 °F 28.3 °F 31.3 °F 87% 30.15 in 10.0 mi WNW 8.1 mph - N/A   Clear
10:35 PM 34.9 °F 28.3 °F 31.8 °F 89% 30.15 in 10.0 mi WNW 8.1 mph - N/A   Clear
10:55 PM 35.1 °F 28.6 °F 32.0 °F 89% 30.15 in 10.0 mi WNW 8.1 mph - N/A   Clear
11:14 PM 33.1 °F 26.9 °F 30.7 °F 91% 30.14 in 10.0 mi WNW 6.9 mph - N/A   Clear
11:35 PM 32.4 °F 26.0 °F 30.7 °F 94% 30.15 in 10.0 mi WNW 6.9 mph - N/A   Clear
11:55 PM 32.0 °F 25.6 °F 30.2 °F 93% 30.15 in 10.0 mi WNW 6.9 mph - N/A   Clear